Jackson, TN

7:24 PM CDT on September 21, 2019 (GMT -0500)
McKellar-Sipes Regional

Weather History for KMKL - July, 2019

Change the Weather History Date:

Saturday, July 27, 2019

  Actual Average Record
Temperature  
Mean Temperature 76 °F 80 °F  
Max Temperature 89 °F 91 °F 107 °F (1952)
Min Temperature 63 °F 68 °F 57 °F (1962)
Degree Days  
Heating Degree Days 0 0  
Month to date heating degree days 0 0  
Since 1 June heating degree days 1 2  
Since 1 July heating degree days 0 0  
Cooling Degree Days 11 15  
Month to date cooling degree days 398 398  
Year to date cooling degree days 979 952  
Since 1 June cooling degree days 719 737  
Growing Degree Days 26 (Base 50)    
Moisture  
Dew Point 66 °F    
Average Humidity 71    
Maximum Humidity 100    
Minimum Humidity 41    
Precipitation  
Precipitation 0.00 in 0.14 in 3.67 in (1998)
Month to date precipitation 9.87 3.97  
Year to date precipitation 42.69 32.35  
Sea Level Pressure  
Sea Level Pressure 30.21 in    
Wind  
Wind Speed 1 mph (SW)    
Max Wind Speed 8 mph    
Max Gust Speed 11 mph    
Visibility 4 miles    
Events Fog    
T = Trace of Precipitation, MM = Missing Value Source: NWS Daily Summary

Daily Weather History Graph

Daily Weather History Graph

Search for Another Location

Airport or City:

Astronomy

Jul. 27, 2019 Rise Set
Actual Time 5:59 AM CDT 8:04 PM CDT
Civil Twilight 5:31 AM CDT 8:32 PM CDT
Nautical Twilight 4:56 AM CDT 9:07 PM CDT
Astronomical Twilight 4:19 AM CDT 9:44 PM CDT
Moon 1:43 AM CDT (7/27) 3:55 PM CDT (7/27)
Length of Visible Light 15h 01m
Length of Day
14h 04m
Waning Crescent, 24% of the Moon is Illuminated
Jul 27
Waning Crescent
Jul 31
New
Aug 7
First Quarter
Aug 15
Full
Aug 23
Last Quarter

Hourly Weather History & Observations

Time (CDT) Temp. Heat Index Dew Point Humidity Pressure Visibility Wind Dir Wind Speed Gust Speed Precip Events Conditions
12:17 AM 68.0 °F - 68.0 °F 100% 30.21 in 2.5 mi Calm Calm - N/A   Clear
12:24 AM 69.1 °F - 68.0 °F 96% 30.21 in 4.0 mi Calm Calm - N/A   Clear
12:38 AM 68.0 °F - 66.9 °F 96% 30.21 in 1.8 mi Calm Calm - N/A   Clear
12:53 AM 68.0 °F - 68.0 °F 100% 30.20 in 2.5 mi Calm Calm - N/A   Clear
1:00 AM 68.0 °F - 68.0 °F 100% 30.22 in 3.0 mi Calm Calm - N/A   Clear
1:49 AM 66.2 °F - 66.2 °F 100% 30.22 in 2.5 mi Calm Calm - N/A   Clear
1:53 AM 66.9 °F - 66.9 °F 100% 30.20 in 2.0 mi Calm Calm - N/A   Clear
2:08 AM 66.9 °F - 66.0 °F 97% 30.22 in 3.0 mi Calm Calm - N/A   Clear
2:35 AM 66.0 °F - 64.9 °F 96% 30.21 in 1.8 mi Calm Calm - N/A   Clear
2:50 AM 66.2 °F - 66.2 °F 100% 30.21 in 0.5 mi Calm Calm - N/A Fog Fog
2:53 AM 66.9 °F - 66.0 °F 97% 30.20 in 0.5 mi Calm Calm - N/A Fog Fog
2:57 AM 66.9 °F - 66.0 °F 97% 30.21 in 0.8 mi Calm Calm - N/A   Mist
3:19 AM 64.9 °F - 64.0 °F 97% 30.21 in 0.2 mi Calm Calm - N/A Fog Fog
3:25 AM 64.9 °F - 64.0 °F 97% 30.21 in 1.0 mi Calm Calm - N/A   Clear
3:28 AM 64.9 °F - 64.0 °F 97% 30.21 in 3.0 mi Calm Calm - N/A   Clear
3:53 AM 66.0 °F - 64.9 °F 96% 30.20 in 2.5 mi Calm Calm - N/A   Clear
4:07 AM 64.9 °F - 64.9 °F 100% 30.21 in 1.2 mi Calm Calm - N/A   Clear
4:19 AM 64.9 °F - 64.9 °F 100% 30.22 in 2.5 mi Calm Calm - N/A   Clear
4:30 AM 64.9 °F - 64.0 °F 97% 30.22 in 1.2 mi Calm Calm - N/A   Clear
4:49 AM 64.4 °F - 64.4 °F 100% 30.22 in 0.5 mi Calm Calm - N/A Fog Fog
4:53 AM 64.9 °F - 64.0 °F 97% 30.21 in 0.5 mi Calm Calm - N/A Fog Fog
5:17 AM 64.9 °F - 64.0 °F 97% 30.23 in 2.0 mi Calm Calm - N/A   Clear
5:25 AM 64.0 °F - 64.0 °F 100% 30.23 in 0.8 mi Calm Calm - N/A   Clear
5:44 AM 64.0 °F - 64.0 °F 100% 30.23 in 2.0 mi Calm Calm - N/A   Clear
5:53 AM 64.0 °F - 64.0 °F 100% 30.22 in 2.0 mi Calm Calm - N/A   Clear
6:00 AM 63.0 °F - 63.0 °F 100% 30.23 in 1.0 mi Calm Calm - N/A   Clear
6:29 AM 64.9 °F - 64.0 °F 97% 30.24 in 2.0 mi Calm Calm - N/A   Clear
6:53 AM 66.0 °F - 64.9 °F 96% 30.23 in 5.0 mi Calm Calm - N/A   Clear
7:53 AM 73.0 °F - 70.0 °F 90% 30.24 in 10.0 mi Calm Calm - N/A   Clear
8:53 AM 78.1 °F - 69.1 °F 74% 30.25 in 10.0 mi Calm Calm - N/A   Clear
9:53 AM 82.0 °F 85.9 °F 70.0 °F 67% 30.25 in 10.0 mi Variable 3.5 mph - N/A   Clear
10:53 AM 84.9 °F 88.8 °F 69.1 °F 59% 30.25 in 10.0 mi SSW 3.5 mph - N/A   Clear
11:53 AM 87.1 °F 89.2 °F 66.0 °F 49% 30.24 in 10.0 mi North - - N/A   Clear
12:53 PM 88.0 °F 89.6 °F 64.9 °F 46% 30.23 in 10.0 mi WNW 6.9 mph - N/A   Clear
1:53 PM 89.1 °F 90.0 °F 63.0 °F 42% 30.22 in 10.0 mi North - - N/A   Clear
2:53 PM 88.0 °F 89.6 °F 64.9 °F 46% 30.20 in 10.0 mi Calm Calm - N/A   Partly Cloudy
3:53 PM 89.1 °F 91.3 °F 66.0 °F 46% 30.18 in 10.0 mi West 5.8 mph - N/A   Clear
4:53 PM 89.1 °F 91.0 °F 64.9 °F 45% 30.17 in 10.0 mi South 5.8 mph - N/A   Clear
5:53 PM 88.0 °F 90.3 °F 66.0 °F 48% 30.17 in 10.0 mi SW 4.6 mph - N/A   Clear
6:53 PM 84.9 °F 90.1 °F 71.1 °F 63% 30.17 in 10.0 mi Calm Calm - N/A   Clear
7:53 PM 80.1 °F 83.8 °F 72.0 °F 76% 30.17 in 10.0 mi Calm Calm - N/A   Clear
9:53 PM 72.0 °F - 71.1 °F 97% 30.18 in 5.0 mi Calm Calm - N/A   Clear